Regional Weather Roundup
Issued by NWS Portland, ME

Current Version | Previous Version | Text Only | Print | Product List | Glossary Off
Versions: 1 2 3 4 5 6 7 8 9 10 11 12 13 14 15 16 17 18 19 20 21 22 23 24 25 26 27 28 29 30 31 32 33 34 35 36 37 38 39 40 41 42 43 44 45 46 47 48 49 50
000 ASUS41 KGYX 190310 RWRGYX WEATHER ROUNDUP FOR MAINE AND NEW HAMPSHIRE NATIONAL WEATHER SERVICE GRAY ME 1100 PM EDT MON JUN 18 2018 MEZ002-005-006-010-012-015-018-020-021-024-026-027-029-190400- MAINE CITY SKY/WX TMP DP RH WIND PRES REMARKS PORTLAND FAIR 74 71 91 SW15G23 29.58F SANFORD FAIR 73 71 93 SW9 29.61F BAR HARBOR LGT RAIN 67 64 90 SW10 29.57R WISCASSET CLOUDY 70 69 97 SW9 29.58F ROCKLAND LGT RAIN 67 66 97 SW10G18 29.56F FRYEBURG CLOUDY 73 73 100 VRB6 29.58F LEWISTONAUBURN MOCLDY 73 71 93 SW12 29.56F AUGUSTA CLOUDY 71 69 93 VRB5 29.55F WATERVILLE LGT RAIN 71 70 96 W6 29.55S BANGOR HVY RAIN 72 71 97 SW10G17 29.53F FOG GREENVILLE N/A 67 67 100 CALM 29.54F MILLINOCKET LGT RAIN 70 68 93 VRB3 29.51F HOULTON LGT RAIN 69 69 100 SW8 29.46F PRESQUE ISLE LGT RAIN 68 67 96 W5 29.49R FRENCHVILLE LGT RAIN 68 61 78 NW13G22 29.50R CARIBOU LGT RAIN 70 66 87 NW5 29.48R $$ NHZ002-005-008-009-011-012-014-190400- NEW HAMPSHIRE CITY SKY/WX TMP DP RH WIND PRES REMARKS PORTSMOUTH CLOUDY 75 70 86 SW13G22 29.61F ROCHESTER MOCLDY 74 72 93 CALM 29.62F NASHUA FAIR 74 73 97 VRB3 29.68F MANCHESTER CLOUDY 75 71 87 S13 29.65F CONCORD CLOUDY 74 71 91 SE6 29.65F LACONIA LGT RAIN 75 69 81 SW17G23 29.62F PLYMOUTH N/A 71 69 94 CALM 29.62F BERLIN HVY RAIN 71 69 93 NW12G20 29.62S FOG WHITEFIELD LGT RAIN 72 70 93 SW6 29.63S JAFFREY FAIR 72 71 97 SW10 29.72F KEENE N/A N/A N/A N/A MISG N/A LEBANON CLOUDY 78 67 68 S7 29.63F MT WASHINGTON RAIN 57 57 100 W61G74 N/A VSB 0 $$ VTZ005-007-008-190400- VERMONT CITY SKY/WX TMP DP RH WIND PRES REMARKS ST JOHNSBURY N/A 71 71 100 MISG 29.60F MONTPELIER LGT RAIN 70 70 100 SW3 29.70F BURLINGTON LGT RAIN 70 67 90 N12 29.67R $$ MAZ007-012-024-CTZ003-RIZ002-NYZ038-NYZ072-190400- SOUTHERN NEW ENGLAND AND NY CITY SKY/WX TMP DP RH WIND PRES REMARKS BOSTON MOCLDY 72 68 87 SW18 29.69F WORCESTER FAIR 69 68 96 SW16 29.74F NANTUCKET FOG 63 62 97 SW18G26 29.80F VSB 1/2 PROVIDENCE LGT RAIN 70 67 90 SW12 29.75F HARTFORD MOCLDY 72 70 93 S8 29.75F ALBANY MOCLDY 78 70 76 SW6 29.73S NEW YORK CITY MOCLDY 81 72 74 SW9 29.80F $$ ANZ081-ANZ082-ANZ150-NHZ014-MEZ023>029-190400- COASTAL MARINE OBSERVATIONS STATION/POSITION TIME TEMP WIND PRES WAVE AIR SEA DIR/SP/G HT/PER (UTC) (F) (DEG/KT/KT) (MB) (FT/S) MOUNT DESERT ROC 0300 57 200/ 30/ 32 1001.0R MATINICUS ROCK 0200 59 210/ 27/ 29 1001.8F ISLE OF SHOALS 0200 71 220/ 26/ 28 1003.7F JEFFREYS LEDGE 0236 57 N/A 4/ 5 $$ .............KEY.............. WCI - WIND CHILL TC - TEMPERATURE IN CELSIUS VSB - VISIBILITY IN MILES HX - HEAT INDEX FAIR- INDICATES FEW OR NO CLOUDS BELOW 12,000 FT, WITH NO SIGNIFICANT WEATHER AND/OR OBSTRUCTIONS TO VISIBILITY.

USA.gov is the U.S. government's official web portal to all federal, state and local government web resources and services.